Home > Time Zones > World Clock > Weather > Qatar > Doha > Past weeks

Flag for Qatar Weather past 2 weeks in Doha, Qatar

Now
70 °F

Clear.


Feels Like: 70 °F
Forecast: 64 / 81 °F
Wind: 6 mph from North

Location: Doha International Airport

Current Time: Mar 2, 2015 at 10:16:05 PM

Latest Report: Mar 2, 2015 at 9:00 PM


Visibility: 10 mi

Pressure: 29.98 "Hg

Humidity: 83%

Dew point: 64 °F

Location of DohaLocation

Historic Weather in Doha — Graph

°F

Doha temperature yesterday

Maximum temperature yesterday: 79 °F (at 12:00 PM)
Minimum temperature yesterday: 61 °F (at 3:02 AM)
Average temperature yesterday: 69 °F

Past Weeks' High & Low Weather Summary

 TemperatureHumidityPressure
High91 °F (Feb 20, 2:00 PM)94% (Feb 20, 12:00 AM)30.21 "Hg (Feb 20, 12:00 AM)
Low55 °F (Feb 24, 3:00 AM)15% (Mar 2, 12:30 PM)29.56 "Hg (Feb 20, 3:30 PM)
Average69 °F58%29.97 "Hg
* Reported Feb 15 9:00 PM — Mar 2 9:00 PM, Doha, Weather by CustomWeather, © 2015

Note: Actual official high and low records may vary slightly from our data, if they occured in-between our weather recording intervals... More about our weather records

Advertising

Doha weather history for previous 24 hours

 ConditionsComfort  
Time TempWeatherWind HumidityBarometerVisibility
9:00 PM
Mon, Mar 2
70 °FClear.6 mph83%29.98 "Hg10 mi
8:30 PM70 °FClear.8 mph78%29.95 "Hg10 mi
8:00 PM70 °FClear.7 mph73%29.95 "Hg10 mi
7:30 PM70 °FClear.5 mph73%29.95 "Hg10 mi
7:00 PM70 °FClear.6 mph69%29.92 "Hg10 mi
6:00 PM72 °FClear.1 mph73%29.92 "Hg10 mi
5:30 PM73 °FSunny.7 mph61%29.89 "Hg10 mi
5:00 PM73 °FSunny.6 mph61%29.89 "Hg10 mi
4:30 PM75 °FSunny.9 mph54%29.89 "Hg10 mi
3:30 PM75 °FSunny.10 mph47%29.89 "Hg10 mi
3:00 PM77 °FSunny.10 mph47%29.89 "Hg10 mi
2:00 PM79 °FSunny.12 mph39%29.89 "Hg10 mi
1:30 PM82 °FSunny.10 mph37%29.89 "Hg10 mi
1:00 PM84 °FSunny.6 mph15%29.89 "Hg10 mi
12:30 PM84 °FPassing clouds.6 mph15%29.92 "HgN/A
12:00 PM82 °FPassing clouds.8 mph17%29.92 "HgN/A
11:00 AM81 °FPassing clouds.7 mph21%29.95 "HgN/A
10:30 AM79 °FPassing clouds.5 mph24%29.95 "HgN/A
10:00 AM77 °FPassing clouds.5 mph22%29.98 "HgN/A
9:00 AM73 °FPassing clouds.8 mph27%29.98 "HgN/A
8:00 AM70 °FPassing clouds.5 mph35%29.95 "HgN/A
7:00 AM64 °FSunny.1 mph78%29.92 "Hg10 mi
6:30 AM61 °FSunny.1 mph88%29.92 "Hg10 mi
6:00 AM59 °FSunny.2 mph88%29.89 "Hg10 mi
5:30 AM63 °FClear.No wind83%29.89 "Hg10 mi
5:00 AM63 °FPassing clouds.3 mph88%29.86 "HgN/A
4:30 AM64 °FPassing clouds.5 mph83%29.86 "HgN/A
4:00 AM64 °FClear.5 mph83%29.86 "Hg10 mi
3:30 AM64 °FClear.3 mph78%29.86 "Hg10 mi
2:30 AM64 °FClear.2 mph83%29.86 "Hg10 mi
2:00 AM66 °FClear.2 mph78%29.86 "Hg10 mi
1:30 AM66 °FPassing clouds.3 mph73%29.86 "HgN/A
1:00 AM66 °FPassing clouds.5 mph73%29.89 "HgN/A
12:00 AM66 °FPassing clouds.3 mph73%29.89 "HgN/A
11:00 PM
Sun, Mar 1
66 °FClear.2 mph73%29.89 "Hg10 mi
10:00 PM66 °FClear.3 mph68%29.92 "Hg10 mi
Weather by CustomWeather, © 2015

See weather overviewHow to use our weather pages